Location: Poughquag
(41.6090°N, 73.6820°W)
Time: 23:05:34
(UTC-05:00)

Tiros 1 despin weight - Pass Details

Date: 09 December 2023
Orbit: 581 x 624 km, 48.2° (Epoch: 21 February)

Event Time Altitude Azimuth Distance (km) Brightness Sun altitude
Rises 18:02:33 0° 272° (W) 2,808 ? -17.7°
Reaches altitude 10° 18:04:57 10° 281° (W) 1,903 ? -18.1°
Maximum altitude 18:09:01 37° 350° (N) 904 ? -18.9°
Enters shadow 18:10:10 31° 25° (NNE) 1,020 ? -19.1°
